{"data":{"norad_id":62592,"intl_designator":"2025-008F","name":"STARLINK-11415 [DTC]","alt_names":[],"object_type":"PAYLOAD","status":"ACTIVE","operator":null,"country":"US","launch_date":"2025-01-13","launch_site_code":"AFETR","launch_vehicle":null,"mission":null,"orbit_class":"UNKNOWN","rcs_meters":null,"size_class":null,"mass_kg":null,"dimensions":null,"purposes":["comms"],"wikipedia_slug":null,"has_3d_model":false,"image_url":null,"decayed_at":null,"tle_current":{"epoch":"2026-05-25T00:16:06.645792Z","epoch_age_seconds":71185,"freshness":"FRESH","line1":"1 62592U 25008F   26145.01118803  .00212738  00000+0  16122-2 0  9995","line2":"2 62592  43.0025  26.4787 0003536 251.7264 108.3219 15.70941444 79221","mean_motion":15.70941444,"eccentricity":0.0003536,"inclination_deg":43.0025,"raan_deg":26.4787,"arg_perigee_deg":251.7264,"mean_anomaly_deg":108.3219,"bstar":0.0016122,"rev_number":7922,"period_min":91.664778817816,"perigee_km":353.82386785629,"apogee_km":358.5863946115,"semimajor_km":6734.3421312339,"source":"CELESTRAK","updated_at":"2026-05-25T13:38:19.734063Z"}}}